Miscellaneous Local Product
Issued by NWS Hastings, NE

Home | Current Version | Previous Version | Graphics & Text | Print | Product List | Glossary On
Versions: 1 2 3 4 5 6 7 8 9 10 11 12 13 14 15 16 17 18 19 20 21 22 23 24 25 26 27 28 29 30 31 32 33 34 35 36 37 38 39 40 41 42 43 44 45 46 47 48 49 50
000
AXUS43 KGID 260802
MISGRI

GID CWA HOURLY WEATHER ROUNDUP
NATIONAL WEATHER SERVICE HASTINGS NE
300 AM CDT THU MAR 26 2015

NOTE: "FAIR" INDICATES FEW OR NO CLOUDS BELOW 12,000 FEET WITH NO
SIGNIFICANT WEATHER AND/OR OBSTRUCTIONS TO VISIBILITY.

...SOUTH CENTRAL NEBRASKA...

CITY           SKY/WX    TMP DP  RH WIND       PRES   REMARKS
GRAND ISLAND   FAIR      24  18  77 W7        30.23F WCI  16
HASTINGS       CLEAR     25  19  78 NW8       30.22F WCI  16
KEARNEY        CLEAR     23  16  74 NW8       30.24S WCI  14
ORD            CLEAR     21  15  78 NW6       30.22F WCI  13
YORK           CLEAR     30  27  86 NW12      30.22F WCI  21
AURORA         CLEAR     26  23  87 NW8       30.22F WCI  18
LEXINGTON      CLEAR     22  18  83 W8        30.25S WCI  13
HOLDREGE       CLEAR     23  18  80 NW6       30.24R WCI  16
HEBRON         CLEAR     30  26  82 NW5       30.22F WCI  26

...NEBRASKA PANHANDLE...

CITY           SKY/WX    TMP DP  RH WIND       PRES   REMARKS
CHADRON        CLEAR     23  18  81 SW5       30.18F WCI  17
ALLIANCE       CLEAR     20  16  84 W7        30.19F WCI  11
SCOTTSBLUFF    PTCLDY    27  22  81 N6        30.20F WCI  20
SIDNEY         CLOUDY    30  25  81 NW12      30.20F WCI  20

...WESTERN AND NORTH CENTRAL NEBRASKA...

CITY           SKY/WX    TMP DP  RH WIND       PRES   REMARKS
VALENTINE      CLEAR     17  14  88 W6        30.22S WCI   9
AINSWORTH      CLEAR     24  19  83 W6        30.21F WCI  16
ONEILL         CLEAR     23  19  84 NW3       30.23S
BROKEN BOW     CLEAR     19  13  77 CALM      30.23R
IMPERIAL         N/A     26  20  77 CALM      30.24F
NORTH PLATTE   CLEAR     20  16  84 CALM      30.24S
MCCOOK         CLEAR     22  17  81 W7        30.26S WCI  13

...EASTERN NEBRASKA...

CITY           SKY/WX    TMP DP  RH WIND       PRES   REMARKS
NORFOLK        CLEAR     27  21  78 W7        30.22S WCI  19
SO SIOUX CITY  CLEAR     28  21  75 W5        30.22F WCI  23
TEKAMAH        CLEAR     27  22  81 W13       30.21F WCI  16
COLUMBUS       CLEAR     25  16  68 NW9       30.23F WCI  15
ALBION         PTCLDY    25  20  83 CALM      30.23F
OMAHA EPPLEY   CLEAR     28  25  88 N7        30.20S WCI  21
OFFUTT AFB     CLEAR     27  23  85 NW6       30.18F WCI  21
MILLARD        CLEAR     32  25  76 NW5       30.20F WCI  27
LINCOLN        CLEAR     28  23  81 N6        30.21F WCI  22
NEBRASKA CITY  CLEAR     33  28  80 N12       30.17F WCI  24
BEATRICE       CLEAR     32  26  81 N10       30.19F WCI  23
FALLS CITY     CLEAR     32  28  85 NW8       30.17S WCI  25

...NORTHERN KANSAS...

CITY           SKY/WX    TMP DP  RH WIND       PRES   REMARKS
GOODLAND       CLEAR     26  23  88 W6        30.23F WCI  19
HILL CITY      CLEAR     28  23  81 NW3       30.26S
NORTON         SUNNY     28  19  69 NW7       30.25S WCI  21
PHILLIPSBURG   CLEAR     28  25  86 NW7       30.26S WCI  21
SMITH CENTER   CLEAR     27  25  93 NW5       30.25S WCI  21
BELOIT         CLEAR     30  25  80 NW8       30.23S WCI  23
HAYS           CLEAR     30  19  64 NW7       30.24S WCI  23
RUSSELL        PTCLDY    31  28  89 NW7       30.22S WCI  24
CONCORDIA      PTCLDY    32  27  81 NW9       30.21F WCI  24
SALINA         CLOUDY    36  31  82 NW8       30.22R WCI  30
TOPEKA         MOCLDY    38  33  82 NW6       30.17S WCI  33



USA.gov is the U.S. government's official web portal to all federal, state and local government web resources and services.